Weather History for Tallahassee, FL

Change the Weather History Date:

Friday, July 19, 2013

  Actual Average Record
Temperature  
Mean Temperature 79 °F 82 °F  
Max Temperature 84 °F 92 °F 103 °F (2000)
Min Temperature 74 °F 72 °F 62 °F (1896)
Degree Days  
Heating Degree Days 0    
Month to date heating degree days 0  
Since 1 June heating degree days 0  
Since 1 July heating degree days 0  
Cooling Degree Days 14    
Month to date cooling degree days 299  
Year to date cooling degree days 1281  
Since 1 June cooling degree days 819  
Growing Degree Days 28 (Base 50)    
Moisture  
Dew Point 72 °F    
Average Humidity 81    
Maximum Humidity 93    
Minimum Humidity 69    
Precipitation  
Precipitation 0.10 in 0.23 in 1.72 in (1948)
Month to date precipitation 7.01 4.33  
Year to date precipitation 36.72 33.72  
Sea Level Pressure  
Sea Level Pressure 30.07 in    
Wind  
Wind Speed 4 mph (SSE)    
Max Wind Speed 12 mph    
Max Gust Speed 14 mph    
Visibility 10 miles    
Events Rain    
T = Trace of Precipitation, MM = Missing Value Source: NWS Daily Summary

Daily Weather History Graph

Daily Weather History Graph

Search for Another Location

Airport:

Trip Planner

Search our weather history database for the weather conditions in past years. The results will help you decide how hot, cold, wet, or windy it might be!

Date:

Astronomy

Jul. 19, 2013 Rise Set
Actual Time 6:48 AM EDT 8:39 PM EDT
Civil Twilight 6:21 AM EDT 9:05 PM EDT
Nautical Twilight 5:48 AM EDT 9:38 PM EDT
Astronomical Twilight 5:14 AM EDT 10:12 PM EDT
Moon 5:41 PM EDT (7/19) 3:27 AM EDT (7/19)
Length of Visible Light 14h 44m
Length of Day
13h 51m
Waxing Gibbous, 86% of the Moon is Illuminated
Jul 19
Waxing Gibbous
Jul 22
Full
Jul 29
Last Quarter
Aug 6
New
Aug 14
First Quarter

Hourly Weather History & Observations

Time (EDT) Temp. Heat Index Dew Point Humidity Pressure Visibility Wind Dir Wind Speed Gust Speed Precip Events Conditions
12:53 AM 80.1 °F 83.2 °F 70.0 °F 71% 30.10 in 10.0 mi ESE 8.1 mph - N/A   Scattered Clouds
1:53 AM 77.0 °F - 73.0 °F 88% 30.10 in 10.0 mi South 3.5 mph - 0.01 in Rain Light Rain
2:53 AM 75.9 °F - 71.1 °F 85% 30.08 in 10.0 mi Calm Calm - 0.00 in   Overcast
3:53 AM 75.9 °F - 72.0 °F 87% 30.07 in 10.0 mi Calm Calm - 0.01 in Rain Light Rain
4:53 AM 75.0 °F - 71.1 °F 87% 30.06 in 10.0 mi Calm Calm - 0.03 in   Clear
5:53 AM 73.9 °F - 71.1 °F 91% 30.06 in 10.0 mi Calm Calm - N/A   Clear
6:53 AM 75.0 °F - 72.0 °F 90% 30.06 in 10.0 mi Calm Calm - N/A   Partly Cloudy
7:53 AM 77.0 °F - 72.0 °F 84% 30.07 in 10.0 mi Calm Calm - N/A   Partly Cloudy
8:53 AM 79.0 °F - 73.0 °F 82% 30.09 in 10.0 mi East 3.5 mph - N/A   Partly Cloudy
9:53 AM 82.0 °F 87.4 °F 73.0 °F 74% 30.11 in 10.0 mi Variable 3.5 mph - N/A   Scattered Clouds
10:53 AM 82.9 °F 88.0 °F 72.0 °F 69% 30.10 in 10.0 mi SSE 4.6 mph - N/A   Scattered Clouds
11:53 AM 81.0 °F 86.2 °F 73.9 °F 79% 30.11 in 10.0 mi South 9.2 mph - N/A   Scattered Clouds
12:53 PM 80.1 °F 83.6 °F 71.1 °F 74% 30.10 in 10.0 mi South 6.9 mph - N/A   Scattered Clouds
1:53 PM 79.0 °F - 72.0 °F 79% 30.09 in 10.0 mi SSE 6.9 mph - 0.00 in Rain Light Rain
2:53 PM 78.1 °F - 73.9 °F 87% 30.07 in 10.0 mi South 4.6 mph - 0.00 in Rain Light Rain
3:07 PM 78.8 °F - 73.4 °F 83% 30.08 in 10.0 mi SSE 6.9 mph - 0.00 in   Scattered Clouds
3:44 PM 78.8 °F - 73.4 °F 83% 30.06 in 10.0 mi SSE 5.8 mph - 0.00 in   Overcast
3:53 PM 79.0 °F - 72.0 °F 79% 30.06 in 10.0 mi SSE 9.2 mph - 0.00 in   Overcast
4:53 PM 80.1 °F 83.8 °F 72.0 °F 76% 30.05 in 10.0 mi South 9.2 mph - 0.00 in Rain Light Rain
5:53 PM 79.0 °F - 71.1 °F 77% 30.04 in 10.0 mi South 6.9 mph - 0.00 in   Mostly Cloudy
6:53 PM 79.0 °F - 71.1 °F 77% 30.03 in 10.0 mi South 4.6 mph - N/A   Mostly Cloudy
7:21 PM 78.8 °F - 71.6 °F 78% 30.02 in 10.0 mi South 4.6 mph - N/A   Mostly Cloudy
7:53 PM 79.0 °F - 72.0 °F 79% 30.03 in 10.0 mi Calm Calm - N/A   Mostly Cloudy
8:53 PM 77.0 °F - 72.0 °F 84% 30.03 in 10.0 mi SSE 4.6 mph - N/A   Mostly Cloudy
9:53 PM 75.9 °F - 72.0 °F 87% 30.05 in 10.0 mi South 5.8 mph - N/A   Mostly Cloudy
10:53 PM 75.0 °F - 72.0 °F 90% 30.05 in 10.0 mi South 8.1 mph - 0.01 in Rain Light Rain
11:53 PM 73.9 °F - 71.1 °F 91% 30.06 in 10.0 mi SSE 4.6 mph - 0.01 in Rain Light Rain